This is the latest recevied weather packets stored in our database for station/object OK4PZ-4. If no packets are shown the sender has not sent any weather packets the latest 1 day(s).
| Time | Temp. | Humidity | Pressure | Rain* | Wind** | Luminosity | Snow |
|---|---|---|---|---|---|---|---|
| 1778030510 | 14.44° C | 100% | 1004.9 hPa | 0 mm | 0 m/s | - | - |
| 1778030277 | 14.44° C | 100% | 1005.1 hPa | 0 mm | 0 m/s | - | - |
| 1778030268 | 14.44° C | 100% | 1004.9 hPa | 0 mm | 0 m/s | - | - |
| 1778026627 | 14.44° C | 100% | 1004.9 hPa | 0 mm | 0.45 m/s, 171° | - | - |
| 1778026395 | 15° C | 100% | 1005 hPa | 0 mm | 0 m/s | - | - |
| 1778022668 | 15° C | 100% | 1004.7 hPa | 0 mm | 0.89 m/s, 225° | - | - |
| 1778022436 | 15° C | 100% | 1004.6 hPa | 0 mm | 0.45 m/s, 112° | - | - |
| 1778022431 | 15.56° C | 100% | 1004.9 hPa | 0 mm | 0.45 m/s, 112° | - | - |
| 1778018598 | 15.56° C | 100% | 1004.1 hPa | 1.78 mm | 0.45 m/s, 41° | - | - |
| 1778014872 | 17.22° C | 78% | 1004 hPa | 0 mm | 0 m/s | - | - |
| 1778014639 | 17.78° C | 77% | 1003.9 hPa | 0 mm | 0 m/s | - | - |
| 1778010917 | 18.89° C | 70% | 1002 hPa | 0 mm | 1.79 m/s, 227° | - | - |
| 1778010913 | 18.89° C | 70% | 1002 hPa | 0 mm | 1.79 m/s, 227° | - | - |
| 1778010680 | 18.89° C | 74% | 1001.9 hPa | 0 mm | 2.24 m/s, 229° | - | - |
| 1778006954 | 20° C | 63% | 1000.7 hPa | 7.37 mm | 0 m/s | - | - |
| 1778002995 | 22.78° C | - | - | - | 0 m/s | - | - |
| 1778002994 | 22.78° C | 54% | 1000.7 hPa | 7.37 mm | 0 m/s | - | - |
| 1777999035 | 26.67° C | 44% | 1000.8 hPa | 7.37 mm | 0 m/s | - | - |
| 1777995309 | 23.33° C | 53% | 1001.5 hPa | 7.37 mm | 0 m/s | - | - |
| 1777995076 | 23.89° C | 54% | 1001.5 hPa | 7.37 mm | 0.45 m/s, 175° | - | - |
| 1777991350 | 25° C | 71% | 1002.1 hPa | 7.37 mm | 1.79 m/s, 41° | - | - |
| 1777991117 | 24.44° C | 74% | 1002 hPa | 7.37 mm | 0.89 m/s, 256° | - | - |
| 1777987391 | 22.78° C | 47% | 1002.7 hPa | 1.52 mm | 0.45 m/s, 305° | - | - |
| 1777983431 | 30° C | 25% | 1002.4 hPa | 0 mm | 1.34 m/s, 159° | - | - |
| 1777979472 | 35° C | 19% | 1002.8 hPa | 0 mm | 0 m/s | - | - |
* Rain since midnight (hover to see other rain measurements)
** Current wind speed in m/s (hover to see current wind gust speed)